Home   Weather   Bilbao   Past weeks

Flag for Spain Past Weather in Bilbao, Spain — Yesterday and Last 2 Weeks

Now
75 °F

Scattered clouds.


Feels Like: 77 °F
Forecast: 62 / 81 °F
Wind: 3 mph from East

Location: Bilbao / Sondica

Current Time: Sep 28, 2016 at 2:05:54 PM

Latest Report: Sep 28, 2016 at 1:30 PM


Visibility: N/A

Pressure: 30.39 "Hg

Humidity: 65%

Dew Point: 63 °F

Location of BilbaoLocation

Past Weather in Bilbao — Graph

°F

Bilbao Temperature Yesterday

Maximum temperature yesterday: 68 °F (at 12:30 PM)
Minimum temperature yesterday: 57 °F (at 1:00 AM)
Average temperature yesterday: 63 °F

High & Low Weather Summary for the Past Weeks

 TemperatureHumidityPressure
High88 °F (Sep 13, 1:30 PM)100% (Sep 14, 7:00 AM)30.42 "Hg (Sep 14, 7:00 AM)
Low54 °F (Sep 15, 1:00 AM)33% (Sep 24, 3:00 PM)29.68 "Hg (Sep 13, 2:00 PM)
Average65 °F84%30.13 "Hg
* Reported Sep 13 1:00 PM — Sep 28 1:00 PM, Bilbao, Weather by CustomWeather, © 2016

Note: Actual official high and low records may vary slightly from our data, if they occured in-between our weather recording intervals... More about our weather records

Advertising

Bilbao Weather History for the Previous 24 Hours

Scroll right to see more
 ConditionsComfort  
Time TempWeatherWind HumidityBarometerVisibility
1:00 PM
Wed, Sep 28
75 °FScattered clouds.No wind69%30.39 "HgN/A
12:30 PM72 °FScattered clouds.No wind78%30.42 "HgN/A
12:00 PM72 °FScattered clouds.1 mph83%30.42 "HgN/A
11:30 AM70 °FScattered clouds.1 mph88%30.42 "HgN/A
11:00 AM68 °FScattered clouds.2 mph94%30.42 "HgN/A
10:30 AM68 °FBroken clouds.2 mph94%30.42 "HgN/A
10:00 AM66 °FBroken clouds.3 mph94%30.42 "Hg6 mi
9:30 AM66 °FFog.1 mph94%30.42 "Hg2 mi
9:00 AM64 °FLight rain. Fog.No wind100%30.42 "Hg1 mi
8:52 AM64 °FDrizzle. Fog.2 mph100%30.42 "Hg1 mi
8:30 AM64 °FBroken clouds.2 mph100%30.42 "Hg4 mi
8:00 AM64 °FPartly cloudy.No wind100%30.39 "Hg4 mi
7:30 AM64 °FFog.No wind100%30.39 "Hg3 mi
7:00 AM64 °FPartly cloudy.No wind100%30.39 "Hg4 mi
6:30 AM64 °FPartly cloudy.No wind100%30.39 "Hg4 mi
6:00 AM64 °FPartly cloudy.1 mph100%30.39 "Hg5 mi
5:30 AM64 °FPartly cloudy.No wind100%30.39 "Hg5 mi
5:00 AM64 °FPassing clouds.1 mph100%30.39 "Hg5 mi
4:30 AM64 °FPartly cloudy.2 mph100%30.39 "HgN/A
4:00 AM64 °FPassing clouds.2 mph100%30.39 "HgN/A
3:30 AM64 °FLight rain. Partly cloudy.1 mph100%30.39 "HgN/A
3:00 AM64 °FLight rain. Passing clouds.1 mph100%30.39 "Hg4 mi
2:30 AM66 °FOvercast.1 mph94%30.39 "Hg5 mi
2:00 AM66 °FMostly cloudy.1 mph94%30.39 "Hg5 mi
1:30 AM66 °FPassing clouds.2 mph94%30.39 "Hg4 mi
1:00 AM64 °FLight rain. Partly cloudy.No wind100%30.39 "Hg5 mi
12:30 AM66 °FPassing clouds.No wind94%30.39 "HgN/A
12:00 AM64 °FPartly cloudy.No wind100%30.42 "HgN/A
11:30 PM
Tue, Sep 27
64 °FPartly cloudy.1 mph100%30.42 "HgN/A
11:00 PM64 °FPartly cloudy.1 mph100%30.42 "Hg6 mi
10:30 PM66 °FPartly cloudy.2 mph94%30.42 "Hg6 mi
10:00 PM66 °FPartly cloudy.2 mph94%30.39 "Hg6 mi
9:30 PM66 °FPartly cloudy.2 mph94%30.39 "Hg3 mi
9:00 PM66 °FPartly cloudy.6 mph100%30.39 "Hg4 mi
8:30 PM66 °FDrizzle. Fog.5 mph100%30.39 "Hg3 mi
8:00 PM66 °FDrizzle. Fog.2 mph94%30.39 "Hg3 mi
7:30 PM66 °FDrizzle. Fog.5 mph100%30.36 "Hg2 mi
7:00 PM66 °FDrizzle. Fog.1 mph100%30.36 "Hg3 mi
6:30 PM66 °FDrizzle. Fog.1 mph100%30.36 "Hg2 mi
6:00 PM66 °FDrizzle. Broken clouds.6 mph100%30.36 "Hg2 mi
5:30 PM66 °FDrizzle. Broken clouds.5 mph100%30.36 "Hg2 mi
5:00 PM66 °FDrizzle. Broken clouds.7 mph100%30.36 "Hg2 mi
4:30 PM66 °FDrizzle. Broken clouds.8 mph100%30.36 "Hg4 mi
4:00 PM66 °FDrizzle. Broken clouds.10 mph100%30.36 "Hg1 mi
3:30 PM66 °FDrizzle. Broken clouds.8 mph100%30.36 "Hg3 mi
3:00 PM66 °FDrizzle. Broken clouds.1 mph94%30.36 "Hg1 mi
2:30 PM66 °FDrizzle. Partly sunny.No wind94%30.36 "Hg2 mi
2:00 PM66 °FDrizzle. Partly sunny.No wind94%30.36 "HgN/A
Weather by CustomWeather, © 2016

See weather overviewHow to use our weather pages